Date String (YYYY-MM-DD hh:mm:ss) UTC,Instrument flags,Ambient pressure (hPa),Sample flow (lpm),Bypass flow (lpm),Sample temperature (°C),Ambient temperature (°C),ASC tube jacket temperature (°C),LED temperature (°C),Box temperature (°C),Sample RH (%),Span deviation,Mass concentration (μg/m³),Mass concentration (μg/m³),Mass concentration (μg/m³)
DateTimeUTC,F1_M11,P_M11,Q1_M11,Q2_M11,T1_M11,T2_M11,T3_M11,T4_M11,T5_M11,U1_M11,ZSPAN_M11,X2_M11,X0_M11,X1_M11
2022-05-19 09:00:00,,0818.9,5.00,0.00,29.9,28.7,00.0,38.8,31.7,09.2,0000.0,0003.62,0010.24,0002.15
2022-05-19 09:01:00,,0818.9,5.01,0.00,29.9,28.7,00.0,38.8,31.7,09.1,0000.0,0003.63,0009.57,0002.12
2022-05-19 09:02:00,,0818.9,5.01,0.00,29.9,28.7,00.0,38.8,31.7,09.2,0000.0,0003.63,0009.74,0002.10
2022-05-19 09:03:00,,0818.9,4.99,0.00,29.9,28.7,00.0,38.8,31.7,09.3,0000.0,0003.62,0009.67,0002.10
2022-05-19 09:04:00,,0818.9,4.99,0.00,29.9,28.7,00.0,38.8,31.7,09.3,0000.0,0003.61,0009.54,0002.11
2022-05-19 09:05:00,,0818.9,4.99,0.00,29.9,28.7,00.0,38.8,31.7,09.3,0000.0,0003.63,0009.30,0002.10
2022-05-19 09:06:00,,0818.8,5.00,0.00,29.9,28.7,00.0,38.8,31.7,09.3,0000.0,0003.63,0008.61,0002.08
2022-05-19 09:07:00,,0818.8,5.00,0.00,29.9,28.7,00.0,38.8,31.7,09.2,0000.0,0003.59,0008.28,0002.05
2022-05-19 09:08:00,,0818.8,4.99,0.00,29.9,28.7,00.0,38.8,31.7,09.2,0000.0,0003.61,0009.32,0002.05
2022-05-19 09:09:00,,0818.7,5.01,0.00,29.9,28.7,00.0,38.8,31.7,09.1,0000.0,0003.59,0009.66,0002.07
2022-05-19 09:10:00,,0818.8,5.00,0.00,29.9,28.7,00.0,38.8,31.7,09.1,0000.0,0003.57,0009.89,0002.08
2022-05-19 09:11:00,,0818.8,5.00,0.00,29.9,28.7,00.0,38.8,31.7,09.1,0000.0,0003.57,0009.95,0002.09
2022-05-19 09:12:00,,0818.7,5.00,0.00,29.9,28.7,00.0,38.8,31.7,09.2,0000.0,0003.59,0010.56,0002.09
2022-05-19 09:13:00,,0818.7,5.01,0.00,29.9,28.7,00.0,38.8,31.7,09.2,0000.0,0003.62,0010.28,0002.10
2022-05-19 09:14:00,,0818.7,5.00,0.00,29.9,28.7,00.0,38.8,31.7,09.1,0000.0,0003.66,0010.48,0002.09
2022-05-19 09:15:00,,0818.7,5.01,0.00,29.9,28.7,00.0,38.8,31.7,09.2,0000.0,0003.65,0010.43,0002.08
2022-05-19 09:16:00,,0818.6,5.00,0.00,29.9,28.7,00.0,38.8,31.7,09.2,0000.0,0003.65,0010.43,0002.09
2022-05-19 09:17:00,,0818.6,4.99,0.00,29.9,28.7,00.0,38.8,31.7,09.2,0000.0,0003.64,0010.48,0002.11
2022-05-19 09:18:00,,0818.5,5.01,0.00,29.9,28.7,00.0,38.8,31.7,09.2,0000.0,0003.63,0010.32,0002.12
2022-05-19 09:19:00,,0818.5,5.02,0.00,29.9,28.7,00.0,38.8,31.7,09.2,0000.0,0003.58,0009.20,0002.09
2022-05-19 09:20:00,,0818.4,4.99,0.00,29.9,28.7,00.0,38.8,31.7,09.3,0000.0,0003.57,0008.81,0002.08
2022-05-19 09:21:00,,0818.5,5.00,0.00,29.9,28.7,00.0,38.8,31.7,09.1,0000.0,0003.60,0008.72,0002.09
2022-05-19 09:22:00,,0818.5,5.00,0.00,29.9,28.7,00.0,38.8,31.7,09.2,0000.0,0003.61,0008.79,0002.08
2022-05-19 09:23:00,,0818.5,4.98,0.00,29.9,28.7,00.0,38.8,31.7,09.2,0000.0,0003.63,0008.64,0002.08
2022-05-19 09:24:00,,0818.5,5.01,0.00,29.9,28.7,00.0,38.8,31.7,09.2,0000.0,0003.58,0008.96,0002.06
2022-05-19 09:25:00,,0818.5,5.00,0.00,29.9,28.7,00.0,38.8,31.7,09.1,0000.0,0003.58,0009.17,0002.06
2022-05-19 09:26:00,,0818.5,4.99,0.00,29.9,28.7,00.0,38.8,31.7,09.1,0000.0,0003.60,0009.36,0002.06
2022-05-19 09:27:00,,0818.4,5.01,0.00,29.9,28.7,00.0,38.8,31.7,09.0,0000.0,0003.57,0009.33,0002.05
2022-05-19 09:28:00,,0818.5,5.01,0.00,29.9,28.7,00.0,38.8,31.8,09.0,0000.0,0003.55,0009.32,0002.04
2022-05-19 09:29:00,,0818.5,4.98,0.00,29.9,28.7,00.0,38.8,31.7,09.0,0000.0,0003.58,0009.64,0002.03
2022-05-19 09:30:00,,0818.4,5.00,0.00,29.9,28.7,00.0,38.8,31.8,09.1,0000.0,0003.59,0009.72,0002.04
2022-05-19 09:31:00,,0818.5,5.00,0.00,30.0,28.7,00.0,38.8,31.8,09.0,0000.0,0003.60,0009.67,0002.05
2022-05-19 09:32:00,,0818.5,5.00,0.00,30.0,28.8,00.0,38.8,31.8,09.1,0000.0,0003.57,0009.47,0002.04
2022-05-19 09:33:00,,0818.5,4.99,0.00,30.0,28.8,00.0,38.8,31.8,09.2,0000.0,0003.55,0009.36,0002.04
2022-05-19 09:34:00,,0818.5,5.00,0.00,30.0,28.8,00.0,38.8,31.8,09.1,0000.0,0003.51,0009.02,0002.04
2022-05-19 09:35:00,,0818.5,5.00,0.00,30.0,28.8,00.0,38.9,31.7,09.1,0000.0,0003.50,0008.58,0002.05
2022-05-19 09:36:00,,0818.5,4.99,0.00,30.0,28.8,00.0,38.9,31.8,09.2,0000.0,0003.51,0008.40,0002.06
2022-05-19 09:37:00,,0818.5,5.01,0.00,30.0,28.8,00.0,38.9,31.7,09.1,0000.0,0003.52,0008.45,0002.06
2022-05-19 09:38:00,,0818.5,5.00,0.00,30.0,28.8,00.0,38.9,31.7,09.2,0000.0,0003.54,0008.71,0002.08
2022-05-19 09:39:00,,0818.5,5.00,0.00,30.0,28.8,00.0,38.9,31.7,09.1,0000.0,0003.56,0008.77,0002.08
2022-05-19 09:40:00,,0818.5,5.00,0.00,30.0,28.8,00.0,38.9,31.7,09.0,0000.0,0003.56,0008.45,0002.10
2022-05-19 09:41:00,,0818.5,5.00,0.00,30.0,28.8,00.0,38.9,31.7,09.0,0000.0,0003.59,0008.48,0002.10
2022-05-19 09:42:00,,0818.5,5.00,0.00,30.0,28.8,00.0,38.9,31.7,09.1,0000.0,0003.62,0009.34,0002.11
2022-05-19 09:43:00,,0818.4,5.00,0.00,30.0,28.8,00.0,38.9,31.8,09.1,0000.0,0003.62,0009.76,0002.11
2022-05-19 09:44:00,,0818.4,4.99,0.00,30.0,28.8,00.0,38.9,31.7,09.1,0000.0,0003.65,0010.12,0002.13
2022-05-19 09:45:00,,0818.4,4.99,0.00,30.0,28.8,00.0,38.9,31.7,09.2,0000.0,0003.67,0010.02,0002.13
2022-05-19 09:46:00,,0818.4,5.00,0.00,30.0,28.8,00.0,38.9,31.8,09.2,0000.0,0003.71,0010.09,0002.13
2022-05-19 09:47:00,,0818.4,5.01,0.00,30.0,28.8,00.0,38.9,31.8,09.2,0000.0,0003.70,0010.05,0002.12
2022-05-19 09:48:00,,0818.4,5.01,0.00,30.0,28.8,00.0,38.9,31.8,09.2,0000.0,0003.73,0010.12,0002.12
2022-05-19 09:49:00,,0818.4,5.00,0.00,30.0,28.8,00.0,38.9,31.8,09.2,0000.0,0003.74,0010.05,0002.10
2022-05-19 09:50:00,,0818.3,4.98,0.00,30.0,28.8,00.0,38.9,31.8,09.3,0000.0,0003.77,0010.63,0002.09
2022-05-19 09:51:00,,0818.4,5.01,0.00,30.0,28.8,00.0,38.9,31.8,09.3,0000.0,0003.80,0011.32,0002.10
2022-05-19 09:52:00,,0818.4,5.00,0.00,30.0,28.8,00.0,38.9,31.8,09.2,0000.0,0003.77,0011.21,0002.09
2022-05-19 09:53:00,,0818.4,5.00,0.00,30.0,28.8,00.0,38.9,31.8,09.3,0000.0,0003.73,0010.40,0002.08
2022-05-19 09:54:00,,0818.3,4.99,0.00,30.0,28.8,00.0,38.9,31.8,09.3,0000.0,0003.73,0010.63,0002.08
2022-05-19 09:55:00,,0818.2,4.99,0.00,30.0,28.8,00.0,38.9,31.8,09.3,0000.0,0003.70,0010.31,0002.08
2022-05-19 09:56:00,,0818.2,5.02,0.00,30.0,28.8,00.0,38.9,31.8,09.3,0000.0,0003.67,0010.34,0002.07
2022-05-19 09:57:00,,0818.2,4.99,0.00,30.0,28.8,00.0,38.9,31.8,09.3,0000.0,0003.66,0010.37,0002.07
2022-05-19 09:58:00,,0818.0,4.99,0.00,30.0,28.8,00.0,38.9,31.8,09.4,0000.0,0003.63,0010.17,0002.07
2022-05-19 09:59:00,,0818.0,5.01,0.00,30.0,28.8,00.0,38.9,31.8,09.3,0000.0,0003.58,0010.15,0002.07
